Location: Dahle
(52.1969°N, 9.5195°E)
Time: 23:00:15
(UTC+00:00)

Daily predictions for brighter satellites

Satellite Brightness Start Highest point End
(mag) Time Altitude Azimuth Time Altitude Azimuth Time Altitude Azimuth
COSMO-SKYMED 1 2.7 17:20:15 10° NNE 17:24:33 54° E 17:28:49 10° S
Cosmos 2263 Rocket 2.3 17:18:50 10° NNW 17:24:35 89° ENE 17:30:18 10° SSE
Cosmos 1975 3.5 17:21:59 10° SSW 17:25:59 61° WNW 17:30:00 10° N
ASTEX 1 3.5 17:25:28 10° NNE 17:30:25 61° E 17:35:21 10° S
Cosmos 1437 Rocket 4.1 17:28:46 10° SE 17:31:22 18° E 17:33:58 10° NE
HJ-1C 3.9 17:30:32 10° SE 17:33:23 34° ENE 17:36:15 10° N
CZ-4C R/B 3.8 17:29:30 10° NNE 17:33:47 73° WNW 17:37:52 10° SSW
Cosmos 1741 Rocket 4.1 17:28:51 10° S 17:34:01 59° ESE 17:39:12 10° NNE
Cosmos 1626 4.0 17:32:03 10° NNW 17:35:24 35° W 17:38:44 10° SSW
Cosmos 1814 Rocket 4.0 17:30:48 10° NNW 17:36:05 70° ENE 17:41:16 10° SSE
USA 267 3.7 17:30:14 10° SE 17:36:46 66° SW 17:43:18 10° WNW
SL-4 R/B 3.0 17:32:50 10° W 17:37:03 49° SSW 17:41:31 10° SE
Cosmos 2084 Rocket 3.5 17:35:51 10° NW 17:39:35 50° NE 17:43:22 10° ESE
Cosmos 2208 Rocket 4.4 17:35:32 10° NNW 17:40:45 47° ENE 17:45:59 10° SE
Cosmos 2227 4.2 17:36:14 10° NNW 17:41:54 77° ENE 17:47:32 10° SE
Cosmos 1805 3.2 17:38:50 10° S 17:42:43 79° E 17:46:37 10° NNE
Cosmos 1242 Rocket 2.7 17:40:26 10° SSW 17:43:59 77° WNW 17:47:32 10° N
Okean-O 3.9 17:43:00 10° ESE 17:46:25 22° ENE 17:49:51 10° N
ISS -1.2 17:44:17 10° W 17:46:42 18° SW 17:49:06 10° S
CZ-4 R/B 1.7 17:45:00 10° SE 17:49:00 48° ENE 17:53:02 10° N
Cosmos 1697 Rocket 3.4 17:43:38 10° SW 17:49:10 57° NW 17:54:45 10° NNE
BREEZE M DEB (TANK) 4.3 17:46:54 10° SSW 17:50:52 16° SSE 17:53:03 11° ESE
SL-14 R/B 3.7 17:48:49 10° NNW 17:52:46 68° W 17:56:44 10° S
Cosmos 1908 Rocket 3.9 17:50:22 10° SSE 17:54:25 40° E 17:58:30 10° NNE
OBJECT-B 1.7 17:54:14 18° E 17:54:47 19° ENE 17:56:42 10° NNE
IRIDIUM 103 4.4 17:49:47 10° SSE 17:54:53 59° E 18:00:01 10° N
Meteor 2-21 4.4 17:49:06 10° S 17:55:03 66° E 18:01:03 10° NNE
MOS 1-B 4.4 17:49:19 10° SSE 17:55:08 86° WSW 18:01:01 10° NNW
Cosmos 1733 3.5 17:52:30 10° SSW 17:56:14 67° WNW 17:59:58 10° N
Cosmos 2360 Rocket 3.5 17:53:22 10° SE 17:56:43 16° E 18:00:05 10° ENE
Cosmos 1809 Rocket 4.4 17:53:37 10° S 17:59:41 84° E 18:05:49 10° NNE
Cosmos 1674 Rocket 3.9 17:57:35 10° NNW 18:02:00 70° W 18:06:24 10° S
Cosmos 1766 3.2 17:58:41 10° S 18:02:34 65° E 18:06:30 10° NNE
Cosmos 1782 Rocket 4.4 17:58:59 10° SSE 18:02:42 28° E 18:06:28 10° NNE
Meteor 2-10 4.2 17:58:37 10° SSW 18:04:14 89° WNW 18:09:42 10° NNE
Cosmos 1025 Rocket 3.7 18:00:42 10° N 18:04:38 33° ENE 18:07:56 14° SE
YAOGAN 1 2.6 18:02:57 10° SSE 18:07:16 85° WSW 18:11:38 10° NNW
ATLAS 2AS CENTAUR R/B 4.0 18:00:48 10° WNW 18:07:31 34° N 18:13:52 10° ENE
Cosmos 2026 Rocket 4.4 18:03:20 10° SSE 18:08:49 37° E 18:14:20 10° NNE
Cosmos 968 Rocket 3.8 18:04:20 10° S 18:09:18 45° ESE 18:14:16 10° NE
Okean O Rocket 1.6 18:06:44 10° SSE 18:11:06 89° ENE 18:15:32 10° NNW
SKYMED 2 4.4 18:08:24 10° N 18:12:40 55° WNW 18:16:54 10° SSW
IRIDIUM 106 4.3 18:07:56 10° S 18:13:09 81° E 18:18:24 10° N
Cosmos 2084 4.2 18:09:58 10° WSW 18:13:39 45° NW 18:17:22 10° NE
Lacrosse 4 Rocket 2.6 18:10:58 10° SSE 18:13:56 21° ESE 18:13:56 21° ESE
Meteor 2-5 Rocket 3.6 18:08:49 10° N 18:14:21 68° ENE 18:19:52 10° SSE
Nadezhda 4 Rocket 4.0 18:10:17 10° S 18:16:36 78° E 18:22:55 10° NNE
Meteor 1-15 Rocket 4.2 18:12:49 10° S 18:18:18 63° E 18:23:49 10° NNE
CSL-04 Rocket 3.9 18:13:27 11° SE 18:18:24 49° ENE 18:23:37 10° N
NOSS 3-4 (A) 4.4 18:13:39 10° NW 18:19:48 42° NNE 18:24:38 19° E
NOSS 3-4 (C) 4.4 18:13:45 10° NW 18:19:54 42° NNE 18:24:43 19° E
Cosmos 2285 Rocket 4.3 18:14:35 10° NNW 18:20:55 71° WSW 18:27:15 10° SSE
USA 186 2.2 18:22:42 27° SE 18:24:08 45° ENE 18:27:24 10° N
Cosmos 1726 2.8 18:21:11 10° SSW 18:24:46 55° WNW 18:28:23 10° N
Cosmos 2322 Rocket 2.7 18:20:00 10° S 18:25:11 37° ESE 18:30:24 10° NE
Landsat 7 4.3 18:25:23 23° ESE 18:27:43 38° ENE 18:32:04 10° N
Cosmos 1470 2.7 18:25:38 10° S 18:29:23 53° E 18:33:08 10° NNE
CZ-4B R/B 4.0 18:24:27 10° S 18:29:45 54° W 18:35:11 10° NNW
Cosmos 1975 Rocket 3.1 18:25:25 10° N 18:29:48 59° ENE 18:33:08 16° SSE
ARGOS Delta rocket 4.3 18:24:41 10° N 18:29:59 71° WNW 18:34:58 10° SSW
deb Chang Zheng 4 4.4 18:29:32 27° E 18:30:16 29° ENE 18:33:52 10° N
Cosmos 1980 Rocket 3.0 18:25:46 10° SW 18:31:16 54° NW 18:36:48 10° NNE
Ariane Rocket 4.3 18:36:14 21° ENE 18:36:59 22° NE 18:40:48 10° N
Cosmos 1758 4.4 18:40:19 27° ENE 18:40:19 27° ENE 18:42:49 10° NNE
CRYOSAT 2 4.4 18:34:26 10° SSE 18:39:15 61° E 18:44:07 10° N
Cosmos 2292 Rocket 3.4 18:34:40 10° S 18:39:36 86° E 18:43:22 10° N
USA 215 3.3 18:36:54 13° ENE 18:42:48 81° NNW 18:49:21 10° WSW
IRS-1C Rocket 4.0 18:43:42 21° SSE 18:47:17 69° ENE 18:52:32 10° NNW
Cosmos 1844 Rocket 2.7 18:43:40 10° NNW 18:49:23 90° N 18:52:58 24° SSE
Landsat 5 3.5 18:50:04 10° NNE 18:54:34 64° ESE 18:58:58 10° S
Cosmos 2278 4.2 18:49:01 10° SW 18:54:39 61° NW 19:00:18 10° NNE
SL-16 R/B 2.1 18:49:40 10° SSW 18:55:20 78° ESE 19:01:02 10° NNE
Cosmos 1943 Rocket 4.2 18:52:19 10° N 18:55:20 15° NNE 18:57:29 12° NE
Cosmos 1092 Rocket 3.9 18:51:48 10° S 18:58:06 88° ESE 19:04:24 10° N
Resurs 01 Rocket 2.1 19:01:19 41° ENE 19:01:19 41° ENE 19:05:30 10° N
Terra 3.9 19:03:49 13° NE 19:03:49 13° NE 19:05:24 10° NNE
SJ-6B 2.9 19:02:07 32° S 19:03:41 69° WSW 19:07:31 10° NNW
Cosmos 2278 Rocket 3.3 18:59:44 10° NNW 19:04:34 28° NE 19:05:41 26° ENE
H-2A R/B 2.6 19:07:12 49° NE 19:07:12 49° NE 19:10:31 10° N
Cosmos 1437 Rocket 3.8 19:03:37 10° SW 19:07:12 43° WNW 19:10:49 10° N
Gbstr 26 Del rocket 4.4 19:00:34 10° WSW 19:08:20 82° SSE 19:12:38 32° E
Meteor 1-24 Rocket 4.3 19:04:26 10° NNW 19:09:36 54° W 19:14:48 10° S
Cosmos 1703 3.8 19:07:13 10° N 19:10:10 43° NNE 19:10:10 43° NNE
Resurs 1-3 3.5 19:11:26 44° S 19:12:48 85° WSW 19:17:14 10° NNW
Cosmos 2369 Rocket 4.5 19:11:36 10° NNW 19:14:03 13° NNE 19:16:30 10° NE
Cosmos 921 Rocket 3.7 19:11:42 10° NNW 19:15:35 41° NE 19:15:35 41° NE
IRS-1A Rocket 4.4 19:15:25 47° ESE 19:16:35 55° ENE 19:22:16 10° N
MetOp-A 3.4 19:17:19 65° NNE 19:17:19 65° NNE 19:20:57 10° NNW
Cosmos 783 Rocket 4.4 19:16:51 10° NNW 19:22:08 69° ENE 19:22:48 61° ESE
Okean-O 3.2 19:20:30 29° SSW 19:22:33 57° W 19:26:56 10° NNW
Cosmos 1844 4.0 19:18:21 10° NW 19:23:51 62° WSW 19:26:12 34° S
CZ-4 R/B 3.9 19:20:55 10° SW 19:24:10 22° W 19:27:27 10° NW
JB-3 4.4 19:20:13 10° NNE 19:23:50 70° N 19:23:50 70° N
OBJECT-B 3.0 19:24:56 18° W 19:24:56 18° W 19:26:34 10° NW
Cosmos 1486 Rocket 3.9 19:19:23 10° SSW 19:24:41 74° ESE 19:30:02 10° NNE
IGS 5A 4.4 19:24:37 27° SSW 19:26:30 45° W 19:30:30 10° NNW
Cosmos 2266 Rocket 4.3 19:26:59 45° E 19:26:59 45° E 19:32:45 10° NNE
Cosmos 1655 Rocket 4.5 19:28:46 41° ENE 19:28:46 41° ENE 19:33:56 10° NNE
S3M 3.9 19:22:33 10° N 19:28:48 69° ENE 19:30:10 53° SE
DNEPR-1 R/B 3.9 19:24:05 10° SSW 19:28:54 75° SE 19:30:36 45° NE
Cosmos 773 Rocket 3.9 19:25:00 10° NNW 19:30:21 83° ENE 19:31:00 68° SE
Spot 2 4.1 19:31:04 66° NNE 19:31:04 66° NNE 19:34:58 10° NNW
Meteor 1-21 Rocket 4.1 19:25:26 10° N 19:30:59 69° ENE 19:31:34 64° ESE
Cosmos 2333 Rocket 4.3 19:36:34 13° NE 19:36:34 13° NE 19:37:10 10° NE
Cosmos 1300 Rocket 3.7 19:30:15 36° SSW 19:31:56 70° WNW 19:36:19 10° N
SPOT 5 4.3 19:36:14 25° NNE 19:36:14 25° NNE 19:38:52 10° N
Cosmos 2360 Rocket 2.0 19:34:13 10° SSW 19:39:51 82° ESE 19:45:32 10° NNE
Cosmos 158 Rocket 3.9 19:40:22 10° NNW 19:44:48 71° N 19:44:48 71° N
Cosmos 883 Rocket 4.4 19:40:58 10° N 19:47:19 66° ENE 19:47:37 65° E
Cosmos 1417 Rocket 4.5 19:43:05 10° NNW 19:49:13 76° W 19:51:03 47° S
Lacrosse 4 Rocket 3.0 19:48:13 10° SW 19:50:17 28° WSW 19:50:17 28° WSW
ATLAS 2AS CENTAUR R/B 3.4 19:53:13 10° NW 20:00:11 44° NNE 20:01:35 39° NE
MOS 1 4.4 20:01:33 61° SW 20:02:17 67° WSW 20:07:57 10° NNW
ERS-1 Rocket 4.2 20:07:13 32° NNE 20:07:13 32° NNE 20:10:16 10° N
SPOT 1/Viking Rocket 3.9 20:07:54 59° WSW 20:07:55 59° WSW 20:13:02 10° NNW
Cosmos 2322 Rocket 3.0 20:03:36 10° SW 20:09:08 49° NW 20:14:42 10° NNE
NOSS 3-4 (A) 3.7 20:04:32 10° NW 20:11:21 83° SW 20:12:04 74° SSE
NOSS 3-4 (C) 3.7 20:04:39 10° NW 20:11:27 84° SW 20:12:10 74° SSE
SPOT 3 Rocket 4.2 20:15:04 48° N 20:15:04 48° N 20:18:50 10° NNW
Ariane Rocket 3.5 20:16:26 57° NW 20:16:26 57° NW 20:20:34 10° NNW
USA 215 3.6 20:24:15 50° NE 20:25:35 59° N 20:31:59 10° W
Aureole 1 Rocket 4.2 20:19:54 10° SW 20:27:01 68° WNW 20:32:34 10° NNE
USA 281 3.3 20:27:40 65° NNE 20:27:40 65° NNE 20:33:43 10° NNW
Resurs 01 Rocket 3.6 20:38:52 26° WNW 20:38:52 26° WNW 20:41:47 10° NW
Cosmos 2315 Rocket 4.2 20:31:57 10° NNW 20:37:56 66° WNW 20:37:56 66° WNW
Terra 3.7 20:42:42 26° N 20:42:42 26° N 20:44:47 10° N
SL-16 R/B 4.1 20:35:13 10° W 20:40:03 28° NW 20:44:56 10° NNE
Cosmos 1943 Rocket 3.5 20:35:31 10° NNW 20:38:59 31° N 20:38:59 31° N
Cosmos 2278 Rocket 3.1 20:43:36 10° NNW 20:47:32 46° NW 20:47:32 46° NW
Cosmos 2369 Rocket 4.0 20:55:22 10° NNW 20:58:48 24° NNE 20:58:48 24° NNE
Cosmos 2219 Rocket 4.3 21:05:13 17° NNE 21:05:13 17° NNE 21:06:32 10° NNE
Cosmos 2333 Rocket 3.9 21:18:31 27° N 21:18:31 27° N 21:21:30 10° NNE
Cosmos 2360 Rocket 4.0 21:19:47 10° W 21:24:32 27° NW 21:29:18 10° NNE
ATLAS 2AS CENTAUR R/B 3.7 21:44:32 10° NW 21:49:00 41° NW 21:49:00 41° NW
SL-16 R/B 4.4 23:57:33 21° N 23:57:33 21° N 23:59:34 10° NNE
